Regional Weather Roundup
Issued by NWS

Home | Current Version | Previous Version | Text Only | Print | Product List | Glossary On
Versions: 1 2 3 4 5 6 7 8 9 10 11 12 13 14 15 16 17 18 19 20 21 22 23 24 25 26 27 28 29 30 31 32 33 34 35 36 37 38 39 40 41 42 43 44 45 46 47 48 49 50
000
ASUS44 KFWD 221603
RWRTX
NORTH TEXAS HOURLY WEATHER ROUNDUP
NATIONAL WEATHER SERVICE FORT WORTH TX
1100 AM CDT SAT JUL 22 2017

NOTE: "FAIR" INDICATES FEW OR NO CLOUDS BELOW 12,000 FEET WITH NO
SIGNIFICANT WEATHER AND/OR OBSTRUCTIONS TO VISIBILITY.

TXZ118-119-221700-
DALLAS/FORT WORTH METROPLEX

CITY           SKY/WX    TMP DP  RH WIND       PRES   REMARKS
DFW AIRPORT    MOSUNNY   92  74  55 S9        29.94F HX 101
DALLAS LOVE    MOSUNNY   92  72  51 SW9       29.95F HX  99
FTW MEACHAM    SUNNY     92  75  57 S10       29.95F HX 103
DAL-EXECUTIVE  SUNNY     91  73  55 VRB7      29.96F HX  99
FTW-ALLIANCE   MOSUNNY   92  74  55 SW8       29.95F HX 101
FTW-NAS-JRB    MOSUNNY   92  72  51 SW10      29.95F HX  99
FTW-SPINKS     SUNNY     91  72  52 S6        29.98S HX  98
ARLINGTON      SUNNY     91  74  57 VRB3      29.96F HX 100
GRAND PRAIRIE  SUNNY     90  70  51 S8        29.98S HX  95
ADDISON        SUNNY     90  72  55 S9        29.97F HX  96
MESQUITE       SUNNY     88  73  62 SE7       29.97F HX  96
LANCASTER      SUNNY     89  73  59 S8        29.98S HX  96
$$

TXZ091>094-102>105-117-120-121-131>134-221700-
NORTH CENTRAL TEXAS

CITY           SKY/WX    TMP DP  RH WIND       PRES   REMARKS
SHRMAN/DENISON SUNNY     92  72  51 S10       29.96F HX  98
GAINESVILLE    SUNNY     91  71  52 S12       29.96S HX  98
BOWIE          SUNNY     93  69  45 S9        29.95S HX  98
BRIDGEPORT     MOSUNNY   93  68  43 SW9       29.97R HX  97
DECATUR        SUNNY     92  72  51 SW8         N/A  HX  99
DENTON         SUNNY     92  74  55 S9        29.94F HX 101
MCKINNEY       SUNNY     90  76  63 S10G17    29.96F HX 101
BONHAM         SUNNY     88  75  66 S6        29.97S HX  97
GREENVILLE     SUNNY     93  72  49 S6        29.98S HX 100
ROCKWALL       SUNNY     88  74  65 S8G20     29.98S HX  96
TERRELL        SUNNY     89  72  56 S8        29.98F HX  96
WAXAHACHIE     SUNNY     90  73  56 S6        29.99S HX  97
CLEBURNE       SUNNY     90  75  62 SW9G15    29.99S HX 100
GRANBURY       SUNNY     93  70  47 SW3       29.98S HX  99
$$

TXZ083>090-098>101-113>116-127>130-139>142-154-155-221700-
WESTERN NORTH TEXAS

CITY           SKY/WX    TMP DP  RH WIND       PRES   REMARKS
WICHITA FALLS  MOSUNNY   92  66  42 SW12      29.92S HX  94
WF-KICKAPOO    MOSUNNY   93  66  40 SW8       29.95S HX  96
VERNON         SUNNY     93  58  29 SW9       29.94F HX  92
ABILENE        SUNNY     90  67  46 SW13      30.00F HX  93
ABILENE-DYESS  SUNNY     93  67  42 SW13      29.98F HX  97
GRAHAM         SUNNY     92  68  45 SW7       29.95F HX  95
BRECKENRIDGE   SUNNY     93  65  39 SW12      29.97F HX  95
CISCO          SUNNY     90  70  51 SW13      30.01F HX  95
EASTLAND       SUNNY     89  70  52 S12       30.00S HX  94
RANGER         SUNNY     88  70  55 SW13      30.00S HX  92
MINERAL WELLS  SUNNY     91  70  49 SW14      29.95F HX  96
STEPHENVILLE   SUNNY     90  69  51 SW9       30.02S HX  94
COMANCHE       SUNNY     90  71  52 SW10      30.00F HX  96
BROWNWOOD      LGT RAIN  90  68  48 S7        30.01S HX  93
COLEMAN        SUNNY     91  66  44 SW7G16    30.01F HX  93
$$

TXZ143>147-156>162-174-175-221700-
CENTRAL TEXAS

CITY           SKY/WX    TMP DP  RH WIND       PRES   REMARKS
WACO           MOSUNNY   90  73  57 SE12      29.98S HX  98
WACO-TSTC      SUNNY     90  73  58 SE8       29.98S HX  98
WACO-MCGREGOR  SUNNY     93  72  50 S8G16     29.99S HX 101
HILLSBORO      SUNNY     89  73  59 S10       29.99R HX  96
CORSICANA      SUNNY     90  72  55 SW7       29.99F HX  97
MEXIA          SUNNY     89  72  58 S12       29.99S HX  95
HEARNE         SUNNY     88  72  60 S7        30.01S HX  94
CAMERON        SUNNY     89  72  55 S8        29.99S HX  96
TEMPLE         SUNNY     92  70  48 S13       29.99S HX  97
KILLEEN        SUNNY     91  68  46 S6        29.98F HX  95
KILLEEN-SKYLRK SUNNY     90  71  53 S9        29.99F HX  96
FORT HOOD      SUNNY     89  69  50 SW9       29.96F HX  93
HAMILTON       SUNNY     92  67  43 SW10G16   30.01F HX  96
LAMPASAS       SUNNY     91  70  50 W7        29.99S HX  96
$$

TXZ095>097-106>112-122>126-135>138-148>153-164>167-221700-
EAST TEXAS

CITY           SKY/WX    TMP DP  RH WIND       PRES   REMARKS
PARIS            N/A     92  77  61 S6          N/A  HX 105
SULPHUR SPRNGS SUNNY     90  72  55 S9        30.00S HX  96
MOUNT PLEASANT SUNNY     90  73  57 S7        30.00F HX  97
GILMER         SUNNY     86  73  66 CALM      30.00S HX  93
MINEOLA        SUNNY     88  73  62 S6        29.99S HX  96
TYLER          MOSUNNY   88  73  61 SW10      30.00S HX  95
LONGVIEW       SUNNY     89  75  63 VRB7      30.00R HX  99
MARSHALL         N/A     87  73  63 SW6       30.02S HX  93
ATHENS         SUNNY     86  72  62 SW5       29.99S HX  92
PALESTINE      SUNNY     87  76  71 S3        30.02S HX  97
JACKSONVILLE   SUNNY     86  74  68 SW8       30.03F HX  94
HENDERSON      SUNNY     87  73  63 W8        30.01F HX  95
CENTER         SUNNY     90  77  65 W6        30.02S HAZE    HX 102
NACOGDOCHES    SUNNY     88  75  66 SW7       29.99S HX  97
LUFKIN         MOSUNNY   87  76  69 SW7       30.01S HX  97
$$

SUPPLEMENTAL OBSERVATIONS (NWS FORT WORTH AREA)

CITY           SKY/WX    TMP DP  RH WIND       PRES   REMARKS
$$

SUPPLEMENTAL OBSERVATIONS (NWS NORMAN AREA)

CITY           SKY/WX    TMP DP  RH WIND       PRES   REMARKS
GOODLETT         N/A     95  59  30 SW14      29.96S HX  94
ODELL            N/A     94  67  41 S7        29.96S HX  97
CROWELL          N/A     96  64  35 S7        29.96S HX  98
KNOX CITY        N/A     92  60  33 SW13      29.98S HX  92
SEYMOUR          N/A     96  60  29 SW12      29.96S HX  96
$$

SUPPLEMENTAL OBSERVATIONS (NWS SAN ANGELO AREA)

CITY           SKY/WX    TMP DP  RH WIND       PRES   REMARKS
WEINERT          N/A     93  65  40 SW10      29.98F HX  95
HASKELL          N/A     91  60  36 SW12G17   29.99S HX  90
THROCKMORTON     N/A     91  68  46 SW10      29.99S HX  94
STAMFORD         N/A     92  67  44 SW12      29.99F HX  95
CLYDE            N/A     90  68  47 S9        30.03S HX  94
$$

SUPPLEMENTAL OBSERVATIONS (NWS SHREVEPORT AREA)

CITY           SKY/WX    TMP DP  RH WIND       PRES   REMARKS
$$

SUPPLEMENTAL OBSERVATIONS ARE A COLLECTION OF AUTOMATED INSTRUMENTS
THAT ARE MAINTAINED BY A VARIETY OF FEDERAL AND STATE AGENCIES.
CERTAIN ELEMENTS...SUCH AS HUMIDITY VALUES AND SUSTAINED WIND
SPEEDS...MAY BE APPROXIMATED.





USA.gov is the U.S. government's official web portal to all federal, state and local government web resources and services.